Location: Unspecified
(55.1806°N, 0.0000°E)
Time: 02:35:22
(UTC+00:00)

Starlette - Visible Passes

Search period start: 04 April 2026 00:00
Search period end: 14 April 2026 00:00
Orbit: 805 x 1106 km, 49.8° (Epoch: 29 March)

Date Brightness Start Highest point End Pass type
(mag) Time Alt. Az. Time Alt. Az. Time Alt. Az.
4 Apr 8.8 19:12:17 10° WSW 19:18:44 54° S 19:24:42 10° ESE visible
4 Apr 9.0 21:01:19 10° W 21:07:15 41° SSW 21:09:24 31° SSE visible
4 Apr 10.2 22:51:10 10° W 22:53:34 16° WSW 22:53:34 16° WSW visible
5 Apr 8.8 19:31:22 10° W 19:37:46 53° S 19:43:31 11° ESE visible
5 Apr 9.2 21:20:33 10° W 21:26:07 33° SSW 21:27:42 28° S visible
5 Apr 10.6 23:11:50 10° WSW 23:11:51 10° WSW 23:11:51 10° WSW visible
6 Apr 9.0 19:50:29 10° W 19:56:46 48° SSW 20:01:49 14° SE visible
6 Apr 9.6 21:39:55 10° W 21:44:52 24° SW 21:45:59 23° SSW visible
7 Apr 9.2 20:09:39 10° W 20:15:42 40° SSW 20:20:09 16° SE visible
7 Apr 10.1 21:59:39 10° W 22:03:30 17° SW 22:04:19 17° SW visible
8 Apr 9.5 20:28:54 10° W 20:34:32 32° SSW 20:38:29 16° SSE visible
8 Apr 10.5 22:20:41 10° WSW 22:22:00 11° SW 22:22:40 10° SW visible
9 Apr 9.9 20:48:19 10° W 20:53:16 24° SW 20:56:52 14° S visible
10 Apr 10.3 21:08:07 10° W 21:11:53 16° SW 21:15:18 11° S visible
11 Apr 9.8 19:37:16 10° W 19:42:57 31° SSW 19:48:15 10° SSE visible
11 Apr 10.7 21:29:58 10° WSW 21:30:22 10° SW 21:30:45 10° SW visible
12 Apr 10.2 19:56:43 10° W 20:01:39 23° SW 20:06:20 10° S visible
13 Apr 10.5 20:16:35 10° W 20:20:15 16° SW 20:23:46 10° SSW visible
